This is the latest recevied weather packets stored in our database for station/object WD4DAN-13. If no packets are shown the sender has not sent any weather packets the latest 10 day(s).
| Time | Temp. | Humidity | Pressure | Rain* | Wind** | Luminosity | Snow |
|---|---|---|---|---|---|---|---|
| 1778007151 | 27.78° C | 51% | - | 0 mm | - | - | - |
| 1778006847 | 28.33° C | 51% | - | 0 mm | - | - | - |
| 1778006545 | 27.22° C | 52% | - | 0 mm | - | - | - |
| 1778006241 | 27.78° C | 53% | - | 0 mm | - | - | - |
| 1778005939 | 27.22° C | 51% | - | 0 mm | - | - | - |
| 1778005635 | 27.78° C | 52% | - | 0 mm | - | - | - |
| 1778005332 | 27.78° C | 54% | - | 0 mm | - | - | - |
| 1778005028 | 27.78° C | 54% | - | 0 mm | - | - | - |
| 1778004726 | 27.22° C | 53% | - | 0 mm | - | - | - |
| 1778004422 | 27.78° C | 51% | - | 0 mm | - | - | - |
| 1778004119 | 27.22° C | 52% | - | 0 mm | - | - | - |
| 1778003815 | 27.22° C | 54% | - | 0 mm | - | - | - |
| 1778003512 | 27.22° C | 57% | - | 0 mm | - | - | - |
| 1778003208 | 27.22° C | 52% | - | 0 mm | - | - | - |
| 1778002904 | 26.67° C | 52% | - | 0 mm | - | - | - |
| 1778002601 | 27.78° C | 51% | - | 0 mm | - | - | - |
| 1778002298 | 26.67° C | 50% | - | 0 mm | - | - | - |
| 1778001996 | 26.11° C | 52% | - | 0 mm | - | - | - |
| 1778001692 | 26.67° C | 57% | - | 0 mm | - | - | - |
| 1778001386 | 26.11° C | 56% | - | 0 mm | - | - | - |
| 1778001084 | 26.11° C | 55% | - | 0 mm | - | - | - |
| 1778000776 | 27.22° C | 55% | - | 0 mm | - | - | - |
| 1778000472 | 26.67° C | 56% | - | 0 mm | - | - | - |
| 1778000167 | 26.67° C | 58% | - | 0 mm | - | - | - |
| 1777999863 | 25.56° C | 57% | - | 0 mm | - | - | - |
* Rain latest hour (hover to see other rain measurements)
** Current wind speed in m/s (hover to see current wind gust speed)